Weather Roundup
Issued by NWS Springfield, MO

Home | Current Version | Previous Version | Text Only | Print | Product List | Glossary On
Versions: 1 2 3 4 5 6 7 8 9 10 11 12 13 14 15 16 17 18 19 20 21 22 23 24 25 26 27 28 29 30 31 32 33 34 35 36 37 38 39 40 41 42 43 44 45 46 47 48 49 50
000
NZUS99 KSGF 021810
HRRSGF

HOURLY WEATHER
NATIONAL WEATHER SERVICE SPRINGFIELD MO
100 PM CDT WED SEP 02 2015

......SGF CWA......

CITY           SKY/WX    TMP DP  RH WIND       PRES   REMARKS
SPRINGFIELD    FAIR      86  67  52 VRB3      30.10F
6HR MIN TEMP:  70; 6HR MAX TEMP:  86;

JOPLIN         FAIR      86  69  56 S9        30.08F HX  90
6HR MIN TEMP:  71; 6HR MAX TEMP:  86;

WEST PLAINS    FAIR      86  63  45 VRB5      30.13F
6HR MIN TEMP:  66; 6HR MAX TEMP:  86;

ROLLA          FAIR      88  65  46 S8        30.09F HX  90
6HR MIN TEMP:  70; 6HR MAX TEMP:  89;

OSAGE BEACH    FAIR      86  68  54 SW5       30.09F
BRANSON        PTSUNNY   86  66  51 S3        30.12F

......SURROUNDING SGF CWA......

CITY           SKY/WX    TMP DP  RH WIND       PRES   REMARKS
CHANUTE        FAIR      86  70  58 S13       30.05F HX  90
PARSONS        FAIR      85  72  65 S9        30.06F HX  91
COFFEYVILLE    FAIR      85  72  65 S9        30.04F HX  91
EMPORIA        FAIR      88  67  49 S21G30    30.00F HX  91
GROVE OK       FAIR      88  70  55 S7        30.08F HX  92
ROGERS AR      FAIR      86  67  52 S9        30.10F
SILOAM SPRINGS FAIR      84  66  54 SW7       30.08F
HARRISON AR    FAIR      86  70  58 SE9       30.11F HX  90

......KANSAS AND MISSOURI......

CITY           SKY/WX    TMP DP  RH WIND       PRES   REMARKS
KANSAS CTY INT FAIR      81  72  74 S13       30.02F
DOWNTOWN KC    FAIR      82  71  69 SE7       30.01F
COLUMBIA       FAIR      87  70  56 VRB3      30.08F HX  92
SEDALIA        FAIR      84  69  60 VRB6      30.09F
ST JOSEPH      FAIR      80  71  74 S12       29.99F
ST LOUIS       PTSUNNY   91  66  43 W10       30.08F HX  93
SPIRIT OF STL  FAIR      89  69  51 SW9       30.06F HX  93
KIRKSVILLE     FAIR      76  67  73 S15G23    29.98F
WICHITA        FAIR      91  65  41 S24       29.96F HX  93
TOPEKA         FAIR      83  71  67 S13G22    29.99F
OLATHE         FAIR      80  72  76 S9        30.02F

......TENNESSEE......

CITY           SKY/WX    TMP DP  RH WIND       PRES   REMARKS
MEMPHIS        PTSUNNY   90  67  46 VRB6      30.07F HX  93
NASHVILLE      PTSUNNY   91  66  43 N5        30.09F HX  93

......ARKANSAS.......

CITY           SKY/WX    TMP DP  RH WIND       PRES   REMARKS
FAYETTEVILLE   FAIR      84  68  58 S12       30.10F
FT SMITH       FAIR      88  66  48 SE5       30.05F HX  90
LITTLE ROCK    FAIR      93  66  40 VRB5      30.06F HX  96

......OKLAHOMA.......

CITY           SKY/WX    TMP DP  RH WIND       PRES   REMARKS
TULSA          FAIR      88  70  55 S12G20    30.02F HX  93
PONCA CITY     FAIR      90  67  46 S9G20     29.99F HX  93
MCALESTER      FAIR      88  68  51 S7        30.06F HX  91
OKLAHOMA CITY  FAIR      90  67  46 SW14      30.03F HX  93

......IOWA............

CITY           SKY/WX    TMP DP  RH WIND       PRES   REMARKS
DES MOINES     FAIR      85  69  58 SW17G26   29.93F
QUAD CITIES    FAIR      85  69  58 SW10      30.01F

......ILLINOIS........

CITY           SKY/WX    TMP DP  RH WIND       PRES   REMARKS
QUINCY         FAIR      88  69  53 SW14G22   30.01F HX  92
CHICAGO        MOSUNNY   87  69  54 SW13      30.01F HX  91



USA.gov is the U.S. government's official web portal to all federal, state and local government web resources and services.